Flag for U.S.A. Weather past 2 weeks in Clarksville, Tennessee, U.S.A.

Now
80 °F

Sunny.


Feels Like: 84 °F
Forecast: 75 / 93 °F
Wind: 7 mph from Southeast

Location: Outlaw Field

Current Time: Jul 27, 2015 at 8:40:59 PM

Latest Report: Jul 27, 2015 at 7:52 PM


Visibility: 10 mi

Pressure: 29.92 "Hg

Humidity: 74%

Dew point: 71 °F

Location of ClarksvilleLocation

Historic Weather in Clarksville — Graph

°F

Clarksville temperature yesterday

Maximum temperature yesterday: 87 °F (at 12:52 PM)
Minimum temperature yesterday: 69 °F (at 5:52 AM)
Average temperature yesterday: 76 °F

Past Weeks' High & Low Weather Summary

 TemperatureHumidityPressure
High93 °F (Jul 14, 2:52 PM)100% (Jul 27, 4:52 AM)30.03 "Hg (Jul 27, 4:52 AM)
Low66 °F (Jul 25, 5:59 AM)48% (Jul 25, 2:52 PM)29.65 "Hg (Jul 14, 3:52 PM)
Average81 °F77%29.91 "Hg
* Reported Jul 12 6:52 PM — Jul 27 6:52 PM, Clarksville, Weather by CustomWeather, © 2015

Note: Actual official high and low records may vary slightly from our data, if they occured in-between our weather recording intervals... More about our weather records

Advertising

Clarksville weather history for previous 24 hours

 ConditionsComfort  
Time TempWeatherWind HumidityBarometerVisibility
6:52 PM
Mon, Jul 27
83 °FScattered clouds.8 mph70%29.92 "Hg10 mi
5:52 PM90 °FScattered clouds.5 mph57%29.90 "Hg10 mi
4:52 PM91 °FBroken clouds.7 mph57%29.90 "Hg9 mi
3:52 PM90 °FScattered clouds.8 mph57%29.92 "Hg10 mi
2:52 PM91 °FPartly sunny.3 mph56%29.93 "Hg10 mi
1:52 PM91 °FPassing clouds.5 mph57%29.95 "Hg10 mi
12:52 PM91 °FPassing clouds.3 mph56%29.96 "Hg10 mi
11:52 AM88 °FPassing clouds.3 mph61%29.96 "Hg10 mi
10:52 AM87 °FPassing clouds.3 mph67%29.99 "Hg10 mi
9:52 AM85 °FPassing clouds.5 mph70%29.98 "Hg10 mi
8:52 AM83 °FSunny.No wind79%29.98 "Hg9 mi
7:52 AM76 °FSunny.No wind94%29.98 "Hg8 mi
6:52 AM74 °FScattered clouds.No wind97%29.96 "Hg7 mi
5:52 AM72 °FFog.No wind97%29.96 "Hg0 mi
4:52 AM72 °FFog.3 mph100%29.95 "Hg0 mi
3:52 AM72 °FFog.No wind97%29.94 "Hg0 mi
2:52 AM73 °FFog.No wind97%29.94 "Hg3 mi
1:52 AM73 °FFog.No wind97%29.93 "Hg1 mi
12:52 AM73 °FFog.No wind97%29.94 "Hg1 mi
11:52 PM
Sun, Jul 26
74 °FFog.No wind94%29.95 "Hg4 mi
10:52 PM75 °FFog.No wind94%29.95 "Hg6 mi
9:52 PM74 °FClear.3 mph97%29.94 "Hg7 mi
8:52 PM75 °FClear.No wind90%29.92 "Hg10 mi
Weather by CustomWeather, © 2015

See weather overviewHow to use our weather pages